Home   Weather   Würselen   Past weeks

Flag for Germany Past Weather in Würselen, North Rhine-Westphalia, Germany — Yesterday and Last 2 Weeks

Now
48 °F

Passing clouds.


Feels Like: 43 °F
Forecast: 43 / 46 °F
Wind: 13 mph from Southwest

Location: Maastricht Airport Zuid Limburg

Current Time: Dec 10, 2016 at 11:42:53 pm

Latest Report: Dec 10, 2016 at 10:55 pm


Visibility: 6 mi

Pressure: 30.12 "Hg

Humidity: 87%

Dew Point: 45 °F

Location of WürselenLocation

Past Weather in Würselen — Graph

°F

Würselen Temperature Yesterday

Maximum temperature yesterday: 55 °F (at 2:25 pm)
Minimum temperature yesterday: 45 °F (at 12:25 am)
Average temperature yesterday: 48 °F

High & Low Weather Summary for the Past Weeks

 TemperatureHumidityPressure
High55 °F (Dec 9, 2:25 pm)100% (Nov 27, 12:25 am)30.54 "Hg (Nov 27, 12:25 am)
Low23 °F (Nov 30, 1:55 am)52% (Nov 30, 2:55 pm)30.07 "Hg (Nov 26, 1:25 pm)
Average38 °F83%30.32 "Hg
* Reported Nov 25 10:25 pm — Dec 10 10:25 pm, Würselen, Weather by CustomWeather, © 2016

Note: Actual official high and low records may vary slightly from our data, if they occured in-between our weather recording intervals... More about our weather records

Advertising

Würselen Weather History for the Previous 24 Hours

Scroll right to see more
 ConditionsComfort  
Time TempWeatherWind HumidityBarometerVisibility
10:25 pm
Sat, Dec 10
48 °FMostly cloudy.14 mph87%30.12 "Hg4 mi
9:55 pm48 °FLow clouds.14 mph87%30.12 "Hg5 mi
9:25 pm48 °FLow clouds.14 mph87%30.15 "Hg5 mi
8:55 pm48 °FLow clouds.12 mph87%30.15 "HgN/A
8:25 pm48 °FLow clouds.12 mph87%30.15 "HgN/A
7:55 pm48 °FOvercast.10 mph87%30.15 "HgN/A
7:25 pm48 °FOvercast.14 mph87%30.18 "HgN/A
6:55 pm48 °FOvercast.13 mph82%30.18 "HgN/A
6:25 pm48 °FOvercast.12 mph87%30.18 "HgN/A
5:55 pm50 °FOvercast.13 mph82%30.18 "HgN/A
5:25 pm50 °FDrizzle. Overcast.14 mph82%30.18 "HgN/A
4:55 pm50 °FOvercast.15 mph82%30.18 "HgN/A
3:55 pm50 °FOvercast.13 mph82%30.21 "HgN/A
3:25 pm50 °FOvercast.13 mph76%30.21 "HgN/A
2:55 pm48 °FPartly sunny.14 mph82%30.21 "HgN/A
2:25 pm48 °FMostly cloudy.9 mph82%30.21 "HgN/A
1:55 pm48 °FOvercast.13 mph82%30.24 "HgN/A
1:25 pm48 °FMostly cloudy.12 mph82%30.24 "HgN/A
12:55 pm48 °FClear.15 mph76%30.24 "HgN/A
12:25 pm46 °FOvercast.13 mph82%30.24 "HgN/A
11:55 am46 °FMostly cloudy.14 mph82%30.24 "HgN/A
11:25 am46 °FPartly sunny.15 mph82%30.24 "HgN/A
10:55 am45 °FClear.14 mph81%30.24 "HgN/A
10:25 am45 °FClear.14 mph81%30.24 "HgN/A
9:55 am43 °FClear.16 mph87%30.24 "HgN/A
9:25 am43 °FClear.17 mph87%30.24 "HgN/A
8:55 am41 °FClear.13 mph87%30.24 "HgN/A
8:25 am41 °FClear.10 mph87%30.24 "HgN/A
7:55 am41 °FQuite cool.10 mph87%30.24 "HgN/A
7:25 am41 °FQuite cool.12 mph87%30.24 "HgN/A
6:55 am43 °FClear.16 mph87%30.24 "HgN/A
6:25 am43 °FClear.16 mph87%30.24 "HgN/A
5:55 am43 °FClear.16 mph87%30.24 "HgN/A
5:25 am43 °FClear.16 mph87%30.24 "HgN/A
4:55 am43 °FClear.17 mph87%30.24 "HgN/A
4:25 am43 °FClear.16 mph87%30.27 "HgN/A
3:55 am43 °FClear.15 mph87%30.27 "HgN/A
3:25 am43 °FClear.16 mph87%30.27 "HgN/A
2:55 am43 °FClear.15 mph87%30.27 "HgN/A
2:25 am43 °FClear.15 mph87%30.27 "HgN/A
1:55 am45 °FQuite cool.16 mph81%30.30 "HgN/A
1:25 am45 °FClear.15 mph81%30.30 "HgN/A
12:55 am45 °FQuite cool.16 mph81%30.30 "HgN/A
12:25 am45 °FClear.18 mph87%30.30 "HgN/A
11:55 pm
Fri, Dec 9
45 °FClear.14 mph87%30.33 "HgN/A
11:25 pm46 °FCool.15 mph82%30.30 "HgN/A
Weather by CustomWeather, © 2016

See weather overviewHow to use our weather pages